Weather History for Litchfield, MN

Change the Weather History Date:

Thursday, February 16, 2012

  Actual Average Record
Temperature  
Mean Temperature 29 °F -  
Max Temperature 37 °F 24 °F 56 °F (1981)
Min Temperature 21 °F 5 °F -27 °F (1967)
Degree Days  
Heating Degree Days 36    
Moisture  
Dew Point 20 °F    
Average Humidity 73    
Maximum Humidity 100    
Minimum Humidity 48    
Precipitation  
Precipitation 0.00 in - - ()
Sea Level Pressure  
Sea Level Pressure 30.06 in    
Wind  
Wind Speed 5 mph (West)    
Max Wind Speed 14 mph    
Max Gust Speed 23 mph    
Visibility 10 miles    
Events      
Averages and records for this station are not official NWS values.
T = Trace of Precipitation, MM = Missing Value Source: NWS Daily Summary

Daily Weather History Graph

Daily Weather History Graph

Search for Another Location

Airport:

Trip Planner

Search our weather history database for the weather conditions in past years. The results will help you decide how hot, cold, wet, or windy it might be!

Date:

Astronomy

Feb. 16, 2012 Rise Set
Actual Time 7:18 AM CST 5:46 PM CST
Civil Twilight 6:48 AM CST 6:16 PM CST
Nautical Twilight 6:13 AM CST 6:51 PM CST
Astronomical Twilight 5:39 AM CST 7:25 PM CST
Moon 3:24 AM CST (2/16) 12:29 PM CST (2/16)
Length of Visible Light 11h 28m
Length of Day
10h 28m
Waning Crescent, 28% of the Moon is Illuminated
Feb 16
Waning Crescent
Feb 21
New
Feb 29
First Quarter
Mar 8
Full
Mar 14
Last Quarter

Hourly Weather History & Observations

Time (CST) Temp. Windchill Dew Point Humidity Pressure Visibility Wind Dir Wind Speed Gust Speed Precip Events Conditions
12:33 AM 26.6 °F - 24.8 °F 93% 30.04 in 10.0 mi Calm Calm - N/A   Clear
12:53 AM 26.6 °F - 24.8 °F 93% 30.04 in 10.0 mi Calm Calm - N/A   Clear
1:13 AM 26.6 °F 22.6 °F 24.8 °F 93% 30.04 in 10.0 mi WSW 3.5 mph - N/A   Clear
1:33 AM 24.8 °F - 24.8 °F 100% 30.04 in 10.0 mi Calm Calm - N/A   Clear
1:53 AM 24.8 °F 20.5 °F 23.0 °F 93% 30.04 in 10.0 mi SW 3.5 mph - N/A   Clear
2:13 AM 24.8 °F 20.5 °F 23.0 °F 93% 30.04 in 10.0 mi SW 3.5 mph - N/A   Clear
2:33 AM 24.8 °F 20.5 °F 24.8 °F 100% 30.04 in 10.0 mi SW 3.5 mph - N/A   Clear
2:53 AM 24.8 °F 19.1 °F 23.0 °F 93% 30.04 in 10.0 mi SW 4.6 mph - N/A   Clear
3:13 AM 23.0 °F 17.0 °F 21.2 °F 93% 30.03 in 10.0 mi WSW 4.6 mph - N/A   Clear
3:33 AM 23.0 °F 17.0 °F 21.2 °F 93% 30.02 in 10.0 mi WSW 4.6 mph - N/A   Mostly Cloudy
3:53 AM 24.8 °F 17.9 °F 21.2 °F 86% 30.03 in 10.0 mi West 5.8 mph - N/A   Overcast
4:13 AM 24.8 °F 19.1 °F 21.2 °F 86% 30.03 in 10.0 mi West 4.6 mph - N/A   Overcast
4:33 AM 26.6 °F 22.6 °F 21.2 °F 80% 30.03 in 10.0 mi West 3.5 mph - N/A   Overcast
4:53 AM 24.8 °F 19.1 °F 21.2 °F 86% 30.02 in 10.0 mi West 4.6 mph - N/A   Overcast
5:13 AM 24.8 °F 17.9 °F 21.2 °F 86% 30.02 in 10.0 mi West 5.8 mph - N/A   Overcast
5:34 AM 24.8 °F 16.9 °F 19.4 °F 80% 30.03 in 10.0 mi West 6.9 mph - N/A   Mostly Cloudy
5:53 AM 23.0 °F 15.8 °F 19.4 °F 86% 30.03 in 10.0 mi West 5.8 mph - N/A   Scattered Clouds
6:13 AM 21.2 °F 13.6 °F 19.4 °F 93% 30.03 in 10.0 mi West 5.8 mph - N/A   Clear
6:33 AM 21.2 °F 13.6 °F 19.4 °F 93% 30.03 in 10.0 mi West 5.8 mph - N/A   Clear
6:53 AM 21.2 °F 13.6 °F 17.6 °F 86% 30.04 in 10.0 mi West 5.8 mph - N/A   Clear
7:13 AM 21.2 °F 13.6 °F 17.6 °F 86% 30.05 in 10.0 mi West 5.8 mph - N/A   Clear
7:33 AM 21.2 °F 13.6 °F 17.6 °F 86% 30.05 in 10.0 mi West 5.8 mph - N/A   Clear
7:53 AM 21.2 °F 13.6 °F 19.4 °F 93% 30.07 in 10.0 mi West 5.8 mph - N/A   Clear
8:13 AM 23.0 °F 14.7 °F 19.4 °F 86% 30.07 in 10.0 mi West 6.9 mph - N/A   Clear
8:33 AM 24.8 °F 16.1 °F 21.2 °F 86% 30.07 in 10.0 mi West 8.1 mph - N/A   Clear
8:53 AM 24.8 °F 16.1 °F 21.2 °F 86% 30.08 in 10.0 mi West 8.1 mph - N/A   Clear
9:12 AM 26.6 °F 16.8 °F 23.0 °F 86% 30.08 in 10.0 mi West 10.4 mph - N/A   Clear
9:33 AM 26.6 °F 16.2 °F 23.0 °F 86% 30.09 in 10.0 mi WNW 11.5 mph - N/A   Clear
9:53 AM 28.4 °F 19.7 °F 23.0 °F 80% 30.09 in 10.0 mi West 9.2 mph - N/A   Clear
10:13 AM 30.2 °F 20.2 °F 23.0 °F 75% 30.09 in 10.0 mi WNW 12.7 mph - N/A   Clear
10:33 AM 30.2 °F 20.2 °F 23.0 °F 75% 30.10 in 10.0 mi WNW 12.7 mph - N/A   Clear
10:53 AM 30.2 °F 19.8 °F 23.0 °F 75% 30.11 in 10.0 mi West 13.8 mph 18.4 mph N/A   Clear
11:13 AM 32.0 °F 22.5 °F 23.0 °F 69% 30.11 in 10.0 mi West 12.7 mph 23.0 mph N/A   Clear
11:33 AM 33.8 °F 24.3 °F 23.0 °F 65% 30.10 in 10.0 mi West 13.8 mph 20.7 mph N/A   Clear
11:54 AM 33.8 °F 24.8 °F 21.2 °F 60% 30.09 in 10.0 mi WNW 12.7 mph 18.4 mph N/A   Clear
12:13 PM 33.8 °F 24.3 °F 21.2 °F 60% 30.09 in 10.0 mi WNW 13.8 mph 17.3 mph N/A   Clear
12:33 PM 35.6 °F 27.5 °F 21.2 °F 56% 30.08 in 10.0 mi West 11.5 mph 18.4 mph N/A   Clear
12:53 PM 35.6 °F 27.5 °F 21.2 °F 56% 30.07 in 10.0 mi West 11.5 mph 16.1 mph N/A   Clear
1:13 PM 35.6 °F 27.5 °F 19.4 °F 52% 30.07 in 10.0 mi WNW 11.5 mph 17.3 mph N/A   Clear
1:33 PM 35.6 °F 28.0 °F 19.4 °F 52% 30.06 in 10.0 mi WNW 10.4 mph 16.1 mph N/A   Scattered Clouds
1:54 PM 35.6 °F 27.5 °F 19.4 °F 52% 30.06 in 10.0 mi NW 11.5 mph 17.3 mph N/A   Scattered Clouds
2:13 PM 37.4 °F 28.9 °F 19.4 °F 48% 30.05 in 10.0 mi West 13.8 mph - N/A   Clear
2:33 PM 35.6 °F 26.6 °F 17.6 °F 48% 30.05 in 10.0 mi WNW 13.8 mph 19.6 mph N/A   Clear
2:53 PM 37.4 °F 30.3 °F 19.4 °F 48% 30.06 in 10.0 mi WNW 10.4 mph - N/A   Clear
3:13 PM 37.4 °F 30.3 °F 19.4 °F 48% 30.05 in 10.0 mi WNW 10.4 mph - N/A   Clear
3:53 PM 37.4 °F 30.8 °F 19.4 °F 48% 30.05 in 10.0 mi WNW 9.2 mph 17.3 mph N/A   Clear
4:13 PM 37.4 °F 30.8 °F 19.4 °F 48% 30.05 in 10.0 mi WNW 9.2 mph - N/A   Clear
4:33 PM 35.6 °F 28.6 °F 19.4 °F 52% 30.05 in 10.0 mi WNW 9.2 mph - N/A   Clear
4:53 PM 35.6 °F 29.9 °F 19.4 °F 52% 30.05 in 10.0 mi West 6.9 mph - N/A   Clear
5:13 PM 35.6 °F 29.9 °F 17.6 °F 48% 30.05 in 10.0 mi WNW 6.9 mph - N/A   Clear
5:33 PM 33.8 °F 29.6 °F 17.6 °F 52% 30.05 in 10.0 mi West 4.6 mph - N/A   Clear
6:13 PM 32.0 °F - 15.8 °F 51% 30.06 in 10.0 mi Calm Calm - N/A   Clear
6:33 PM 30.2 °F - 15.8 °F 55% 30.06 in 10.0 mi Calm Calm - N/A   Clear
6:53 PM 28.4 °F - 15.8 °F 59% 30.06 in 10.0 mi Calm Calm - N/A   Clear
7:13 PM 28.4 °F - 15.8 °F 59% 30.06 in 10.0 mi Calm Calm - N/A   Clear
7:33 PM 26.6 °F - 15.8 °F 64% 30.06 in 10.0 mi Calm Calm - N/A   Clear
7:53 PM 28.4 °F - 15.8 °F 59% 30.05 in 10.0 mi Calm Calm - N/A   Clear
8:13 PM 26.6 °F - 15.8 °F 64% 30.04 in 10.0 mi Calm Calm - N/A   Clear
8:33 PM 26.6 °F - 17.6 °F 69% 30.04 in 10.0 mi Calm Calm - N/A   Clear
8:53 PM 26.6 °F - 17.6 °F 69% 30.04 in 10.0 mi Calm Calm - N/A   Scattered Clouds
9:13 PM 24.8 °F - 17.6 °F 74% 30.03 in 10.0 mi Calm Calm - N/A   Scattered Clouds
9:33 PM 24.8 °F - 15.8 °F 69% 30.03 in 10.0 mi Calm Calm - N/A   Clear
9:53 PM 26.6 °F 22.6 °F 15.8 °F 64% 30.03 in 10.0 mi SSE 3.5 mph - N/A   Clear
10:13 PM 26.6 °F 22.6 °F 15.8 °F 64% 30.02 in 10.0 mi SSE 3.5 mph - N/A   Scattered Clouds
10:33 PM 26.6 °F - 15.8 °F 64% 30.01 in 10.0 mi Calm Calm - N/A   Mostly Cloudy
10:53 PM 28.4 °F - 15.8 °F 59% 30.01 in 10.0 mi Calm Calm - N/A   Overcast
11:13 PM 28.4 °F 24.6 °F 17.6 °F 64% 30.01 in 10.0 mi SSW 3.5 mph - N/A   Overcast
11:33 PM 28.4 °F 24.6 °F 15.8 °F 59% 30.01 in 10.0 mi South 3.5 mph - N/A   Overcast
11:53 PM 28.4 °F - 17.6 °F 64% 30.00 in 10.0 mi Calm Calm - N/A   Mostly Cloudy